Showing default

KANOPUS-V 6, 43877

Orbit data source: Space-Track

KANOPUS-V 6, 43877 is a payload satellite owned by VNIIEM (CIS) in SSO that was launched on Thu, 27 Dec 2018 UTC via a SOYUZ-2-1A launch vehicle from the Vostochny Cosmodrome (VOSTO). Payload-class satellites include a variety of spacecraft equipped with specific instruments for various scientific and technological missions. These include communications satellites like Starlink; space stations such as the ISS; scientific satellites like the Hubble; Earth observation satellites from companies like Planet Labs, Umbra, and HawkEye 360; GPS; miniature CubeSats for education and research; and military/defense satellites.

Loading next visibility...
Identifier
43877, 2018-111B
Orbit
SSO
Country
Flag of CISCIS
Related business
Manufacturer
VNIIEM
Mission
Operational Civil Imaging
Bus & Motor
KANOPUS, Unknown motor
Mass
473 kg wet, 473 kg dry
Launch date (UTC)
2018-12-27 (7 years ago)
Launch vehicle
SOYUZ-2-1A
Launch site
Vostochny Cosmodrome (VOSTO)
Object type
Payload
Rocket body
Debris
Shape & HBR
Box + 2 Pan, 3.0 m
Radar Cross Section
1.665 m², Large (>1 m²)

Expand to show TLE details & history
Last TLE update: 8 hours ago

TLE from 8 hours ago
0 KANOPUS-V 6
1 43877U 18111B   25303.01512146  .00008141  00000-0  25142-3 0  9995
2 43877  97.3728 214.1572 0002336  80.0316 280.1190 15.33804692380150
Epoch: 2025-10-30T00:21Z
TLE epoch observation values (Epoch: 2025-10-30T00:21:46.494Z)
Latitude
-0.00003°
Longitude
170.1335°
Altitude
467.303 km
Speed
7.633 km/s
True Right ascension
14h 16m 37s
True Declination
0° 00' 00"
Sunlit
Object was in daylight at epoch
Visualization orbit readout
Latitude
Unknown
Longitude
Unknown
Altitude
Unknown
Speed
Unknown
Apparent Right ascension
Unknown
Apparent Declination
Unknown
Sunlit
N/A
Visualization observer readout
Local Sidereal Time
04:25:41
Azimuth
Unknown
Elevation
Unknown
Doppler factor
Unknown
Orbital elements
Apogee altitude
463.017 km
Perigee altitude
459.821 km
Semi-major axis
6,839.556 km
Eccentricity
0.00023
Inclination
97.3728°
RAAN
214.1572°
Arg. of periapsis
80.0316°
True anomaly
280.09265°
Mean anomaly
280.119°
Eccentric anomaly
280.10582°
Mean motion
3.83708 °/min
Orbital period
93.82 mins
BSTAR
0.00025142
Loading maneuver chart data...
Computing Atmospheric mass density...

Documentation

Showing up to 5 results
|